Orange, MA

4:58 PM EST on February 14, 2016 (GMT -0500)
Orange Municipal

Weather History for KORE - December, 2013

Change the Weather History Date:

Monday, December 30, 2013

  Actual Average Record
Temperature  
Mean Temperature 26 °F -  
Max Temperature 37 °F - - ()
Min Temperature 12 °F - - ()
Degree Days  
Heating Degree Days 39    
Moisture  
Dew Point 20 °F    
Average Humidity 72    
Maximum Humidity 96    
Minimum Humidity 43    
Precipitation  
Precipitation 0.00 in - - ()
Sea Level Pressure  
Sea Level Pressure 29.87 in    
Wind  
Wind Speed 7 mph (WNW)    
Max Wind Speed 17 mph    
Max Gust Speed 26 mph    
Visibility 9 miles    
Events      
T = Trace of Precipitation, MM = Missing Value Source: NWS Daily Summary

Daily Weather History Graph

Daily Weather History Graph

Search for Another Location

Airport or City:

Trip Planner

Search our weather history database for the weather conditions in past years. The results will help you decide how hot, cold, wet, or windy it might be!

Date:

Astronomy

Dec. 30, 2013 Rise Set
Actual Time 7:18 AM EST 4:24 PM EST
Civil Twilight 6:46 AM EST 4:56 PM EST
Nautical Twilight 6:11 AM EST 5:32 PM EST
Astronomical Twilight 5:37 AM EST 6:06 PM EST
Moon 5:04 AM EST (12/30) 2:56 PM EST (12/30)
Length of Visible Light 10h 10m
Length of Day
9h 06m
Waning Crescent, 5% of the Moon is Illuminated
Dec 30
Waning Crescent
Jan 1
New
Jan 7
First Quarter
Jan 15
Full
Jan 24
Last Quarter

Hourly Weather History & Observations

Time (EST) Temp. Windchill Dew Point Humidity Pressure Visibility Wind Dir Wind Speed Gust Speed Precip Events Conditions
12:00 AM 34.0 °F 27.2 °F 32.0 °F 92% 29.58 in 10.0 mi NW 8.1 mph - N/A   Overcast
12:35 AM 34.0 °F 29.8 °F 32.0 °F 92% 29.58 in 10.0 mi NNW 4.6 mph - N/A   Mostly Cloudy
12:44 AM 34.0 °F 28.0 °F 32.0 °F 92% 29.58 in 10.0 mi NW 6.9 mph - N/A   Scattered Clouds
12:52 AM 34.0 °F 28.8 °F 32.0 °F 92% 29.60 in 10.0 mi NW 5.8 mph - N/A   Partly Cloudy
1:52 AM 30.9 °F 26.2 °F 30.0 °F 96% 29.64 in 7.0 mi ESE 4.6 mph - N/A   Scattered Clouds
2:52 AM 30.0 °F 26.5 °F 28.9 °F 96% 29.68 in 6.0 mi WSW 3.5 mph - N/A   Scattered Clouds
3:52 AM 30.0 °F - 28.9 °F 96% 29.68 in 7.0 mi Calm Calm - N/A   Partly Cloudy
4:00 AM 28.9 °F - 28.0 °F 96% 29.67 in 1.5 mi Calm Calm - N/A   Partly Cloudy
4:10 AM 32.0 °F 28.7 °F 30.0 °F 92% 29.67 in 3.0 mi Variable 3.5 mph - N/A   Partly Cloudy
4:52 AM 33.1 °F 30.0 °F 32.0 °F 96% 29.70 in 10.0 mi WSW 3.5 mph - N/A   Overcast
5:52 AM 37.0 °F 31.6 °F 32.0 °F 82% 29.72 in 10.0 mi WSW 6.9 mph - N/A   Overcast
6:52 AM 37.0 °F 31.6 °F 30.0 °F 76% 29.74 in 10.0 mi West 6.9 mph - N/A   Scattered Clouds
7:52 AM 36.0 °F - 30.9 °F 82% 29.79 in 10.0 mi North - - N/A   Mostly Cloudy
8:52 AM 36.0 °F 29.0 °F 26.1 °F 67% 29.84 in 10.0 mi West 9.2 mph - N/A   Overcast
9:52 AM 35.1 °F 27.4 °F 21.9 °F 59% 29.90 in 10.0 mi West 10.4 mph 24.2 mph N/A   Clear
10:52 AM 32.0 °F 22.1 °F 18.0 °F 56% 29.92 in 10.0 mi West 13.8 mph 26.5 mph N/A   Clear
11:52 AM 32.0 °F 20.8 °F 12.9 °F 45% 29.92 in 10.0 mi West 17.3 mph - N/A   Clear
12:52 PM 33.1 °F 24.4 °F 12.9 °F 43% 29.94 in 10.0 mi WNW 11.5 mph - N/A   Clear
1:52 PM 30.0 °F 19.5 °F 12.0 °F 47% 29.96 in 10.0 mi NW 13.8 mph - N/A   Clear
2:52 PM 28.0 °F 16.5 °F 10.0 °F 47% 30.00 in 10.0 mi West 15.0 mph 23.0 mph N/A   Clear
3:52 PM 26.1 °F 15.0 °F 9.0 °F 49% 30.05 in 10.0 mi WNW 12.7 mph 19.6 mph N/A   Clear
4:52 PM 23.0 °F 11.1 °F 9.0 °F 55% 30.08 in 10.0 mi West 12.7 mph 21.9 mph N/A   Clear
5:52 PM 21.9 °F 12.5 °F 8.1 °F 55% 30.10 in 10.0 mi West 8.1 mph - N/A   Clear
6:52 PM 19.9 °F 7.9 °F 7.0 °F 57% 30.12 in 10.0 mi WNW 11.5 mph - N/A   Clear
7:52 PM 19.0 °F 7.5 °F 6.1 °F 57% 30.14 in 10.0 mi NW 10.4 mph - N/A   Clear
8:52 PM 18.0 °F 7.7 °F 6.1 °F 60% 30.15 in 10.0 mi WNW 8.1 mph - N/A   Clear
9:52 PM 16.0 °F 5.3 °F 6.1 °F 65% 30.16 in 10.0 mi WNW 8.1 mph - N/A   Clear
10:52 PM 15.1 °F 9.4 °F 6.1 °F 68% 30.18 in 10.0 mi WNW 3.5 mph - N/A   Clear
11:52 PM 12.9 °F - 6.1 °F 74% 30.17 in 10.0 mi Calm Calm - N/A   Clear